Tracking 25405 objects as of 27-Jan-2022
HD Live streaming from Space Station
objects crossing your sky now

EXPLORER 11

Track EXPLORER 11 now!
10-day predictions
EXPLORER 11 is classified as:


NORAD ID: 107
Int'l Code: 1961-013A
Perigee: 473.8 km
Apogee: 1,262.4 km
Inclination: 28.8 °
Period: 102.2 minutes
Semi major axis: 7239 km
RCS: 0.4708 m2 (medium)
Launch date: April 27, 1961
Source: United States (US)
Launch site: AIR FORCE EASTERN TEST RANGE (AFETR)
aabbcc
Your satellite tracking list
Your tracking list is empty




NASA's NSSDC Master Catalog

Two Line Element Set (TLE):
1   107U 61013A   22026.52690628  .00000596  00000-0  62302-4 0  9996
2   107  28.7869  99.0364 0544660  80.0843 286.0740 14.09527746 48801
Source of the keplerian elements: AFSPC